DateTimeUTC,F1_A11,F1_S11,BsB_S11,BsG_S11,BsR_S11,BbsB_S11,BbsG_S11,BbsR_S11,BaB_A11,BaG_A11,BaR_A11,Tu_S11,T_S11,Uu_S11,U_S11,P_S11,T1_A11
2021-06-12T04:00:00Z,00000200,20000000,,,,,,,0000.05,-000.34,0000.03,16.9,23.8,02.3,01.5,0665.1,30.9
2021-06-12T04:01:00Z,00000200,20000000,,,,,,,-000.12,0000.10,-000.10,16.9,23.9,02.3,01.5,0665.1,30.9
2021-06-12T04:02:00Z,00000200,20000000,,,,,,,0000.11,0000.06,0000.10,16.8,23.9,02.3,01.5,0665.1,30.9
2021-06-12T04:03:00Z,00000200,60000000,,,,,,,0000.26,0000.16,0000.26,16.8,23.9,02.3,01.5,0665.1,30.9
2021-06-12T04:04:00Z,00000200,40000000,0003.25,0001.56,0000.95,0000.48,0000.23,0000.18,0001.81,0001.64,0001.32,17.0,23.7,02.5,01.7,0666.0,30.9
2021-06-12T04:05:00Z,00000200,00000000,0002.73,0001.92,0000.67,0000.19,0000.26,-000.01,0000.47,0000.54,0000.33,17.0,23.6,02.6,01.7,0666.1,30.9
2021-06-12T04:06:00Z,00000200,00000000,0002.58,0001.38,0000.82,0000.60,0000.19,0000.17,0000.10,0000.12,0000.25,17.0,23.6,02.5,01.7,0666.1,30.9
2021-06-12T04:07:00Z,00000200,00000000,0002.89,0001.51,0000.86,0000.46,0000.09,-000.03,0000.56,0000.70,0000.03,17.0,23.6,02.6,01.8,0666.1,30.9
2021-06-12T04:08:00Z,00000200,00000000,0003.21,0001.83,0000.95,0000.23,0000.13,0000.28,0000.88,0000.15,0000.59,17.1,23.6,02.5,01.7,0666.0,30.9
2021-06-12T04:09:00Z,00000200,00000000,0002.98,0001.63,0001.04,0000.67,0000.32,0000.08,-000.27,0000.26,0000.36,17.1,23.6,02.6,01.7,0666.0,30.9
2021-06-12T04:10:00Z,00000200,00000000,0002.84,0001.72,0001.07,0000.64,0000.39,0000.20,0000.35,0000.39,0000.06,17.0,23.5,02.6,01.7,0666.0,30.9
2021-06-12T04:11:00Z,00000200,00000000,0002.98,0001.78,0001.05,0000.61,0000.38,0000.07,0000.15,0000.21,0000.11,17.0,23.5,02.6,01.7,0666.0,30.9
2021-06-12T04:12:00Z,00000200,00000000,0002.72,0001.68,0000.95,0000.47,0000.32,0000.15,0000.66,0000.49,0000.23,17.0,23.5,02.6,01.7,0666.0,30.9
2021-06-12T04:13:00Z,00000200,00000000,0002.76,0001.83,0000.78,0000.65,0000.28,0000.22,0003.87,0003.79,0003.01,17.0,23.5,02.7,01.8,0666.0,30.9
2021-06-12T04:14:00Z,00000200,00000000,0003.74,0001.98,0001.12,0000.60,0000.07,0000.02,0003.00,0002.32,0001.81,17.0,23.5,02.6,01.8,0666.0,30.9
2021-06-12T04:15:00Z,00000200,00000000,0003.12,0001.90,0000.87,0000.59,0000.25,0000.27,0008.85,0007.74,0006.12,17.0,23.5,02.6,01.8,0666.0,30.9
2021-06-12T04:16:00Z,00000200,00000000,0003.88,0001.98,0000.98,0000.76,0000.53,0000.42,0007.41,0007.06,0005.18,17.0,23.5,02.6,01.7,0666.0,30.9
2021-06-12T04:17:00Z,00000200,00000000,0003.26,0002.14,0001.05,0000.37,0000.18,0000.17,0002.61,0002.46,0001.94,17.0,23.5,02.6,01.8,0666.0,30.9
2021-06-12T04:18:00Z,00000200,00000000,0002.72,0001.62,0001.08,0000.50,-000.10,0000.38,0002.31,0001.88,0001.92,17.0,23.5,02.5,01.7,0666.0,30.9
2021-06-12T04:19:00Z,00000200,00000000,0002.43,0001.72,0000.92,-000.02,0000.14,0000.30,0000.23,0000.19,0000.11,17.0,23.5,02.6,01.7,0666.0,30.9
2021-06-12T04:20:00Z,00000200,00000000,0002.78,0001.58,0000.84,0000.07,0000.26,-000.09,0000.79,0000.87,0000.56,17.0,23.5,02.6,01.8,0666.1,30.9
2021-06-12T04:21:00Z,00000200,00000000,0003.22,0001.86,0000.95,0000.64,0000.46,0000.14,0002.44,0002.28,0002.16,17.1,23.5,02.6,01.7,0666.1,30.9
2021-06-12T04:22:00Z,00000200,00000000,0002.25,0001.84,0001.07,0000.35,0000.34,0000.41,0000.44,0000.60,0000.03,17.1,23.5,02.5,01.7,0666.1,30.9
2021-06-12T04:23:00Z,00000200,00000000,0003.06,0001.64,0001.09,0000.47,0000.50,0000.32,0000.31,0000.27,0000.12,17.2,23.6,02.5,01.7,0666.1,30.9
2021-06-12T04:24:00Z,00000200,00000000,0003.05,0001.78,0000.88,0000.27,0000.30,-000.16,0000.64,0000.31,0000.43,17.3,23.7,02.5,01.7,0666.1,31.0
2021-06-12T04:25:00Z,00000200,00000000,0002.66,0001.74,0000.87,0000.65,0000.32,0000.24,0000.47,0000.47,0000.13,17.3,23.7,02.5,01.7,0666.1,31.0
2021-06-12T04:26:00Z,00000200,00000000,0003.04,0001.78,0001.09,0000.30,0000.50,0000.13,0000.34,0000.16,0000.54,17.3,23.7,02.5,01.7,0666.1,31.0
2021-06-12T04:27:00Z,00000200,00000000,0003.00,0002.05,0000.64,0000.42,0000.42,0000.10,0000.36,0000.69,0000.29,17.3,23.7,02.5,01.7,0666.0,30.9
2021-06-12T04:28:00Z,00000200,00000000,0002.78,0001.70,0000.88,0000.09,0000.58,0000.22,0000.33,0000.27,0000.32,17.3,23.7,02.5,01.7,0666.0,30.9
2021-06-12T04:29:00Z,00000200,00000000,0003.22,0001.77,0001.02,0000.72,0000.36,0000.01,0000.04,0000.08,0000.04,17.3,23.7,02.3,01.6,0666.0,30.9
2021-06-12T04:30:00Z,00000200,00000000,0003.05,0001.90,0000.78,0000.10,0000.19,0000.03,0000.71,0000.57,0000.01,17.3,23.7,02.5,01.7,0666.0,30.9
2021-06-12T04:31:00Z,00000200,00000000,0003.13,0001.74,0000.90,0000.93,0000.28,0000.38,0000.18,0000.08,0000.54,17.3,23.7,02.5,01.7,0666.0,30.9
2021-06-12T04:32:00Z,00000200,00000000,0002.73,0001.79,0000.88,0000.16,0000.42,0000.35,0000.30,0000.19,0000.26,17.3,23.6,02.4,01.6,0666.0,30.9
2021-06-12T04:33:00Z,00000200,00000000,0002.69,0001.73,0000.70,0000.31,0000.43,0000.18,0000.19,0000.22,0000.19,17.3,23.6,02.4,01.6,0666.0,30.9
2021-06-12T04:34:00Z,00000200,00000000,0002.72,0001.62,0001.12,0000.56,0000.11,0000.46,0000.36,0000.51,0000.38,17.3,23.6,02.4,01.6,0666.0,30.9
2021-06-12T04:35:00Z,00000200,00000000,0003.45,0001.70,0000.78,-000.05,0000.29,-000.10,0000.37,0000.28,0000.47,17.2,23.6,02.5,01.7,0666.0,30.9
2021-06-12T04:36:00Z,00000200,00000000,0003.00,0001.80,0001.17,0000.77,0000.07,0000.55,0000.36,0000.14,-000.40,17.2,23.6,02.3,01.6,0666.1,30.9
2021-06-12T04:37:00Z,00000200,00000000,0003.10,0001.43,0001.12,0000.09,0000.28,0000.18,0001.13,0001.33,0001.29,17.2,23.6,02.5,01.7,0666.1,30.9
2021-06-12T04:38:00Z,00000200,00000000,0003.15,0001.88,0000.84,0000.15,0000.33,-000.02,0000.99,0000.75,0000.91,17.2,23.6,02.4,01.6,0666.1,30.9
2021-06-12T04:39:00Z,00000200,00000000,0002.76,0001.80,0000.75,0000.39,0000.15,0000.26,0000.83,0000.62,0000.31,17.2,23.6,02.5,01.7,0666.1,30.9
2021-06-12T04:40:00Z,00000200,00000000,0003.34,0001.69,0000.95,0000.66,-000.08,0000.14,0000.32,0000.65,0000.25,17.2,23.6,02.4,01.6,0666.1,30.9
2021-06-12T04:41:00Z,00000200,00000000,0002.78,0001.71,0000.92,0001.00,0000.25,0000.23,0000.46,0000.33,0000.27,17.2,23.6,02.4,01.6,0666.1,30.9
2021-06-12T04:42:00Z,00000200,00000000,0002.65,0001.71,0000.82,0000.82,0000.43,0000.48,0000.06,0000.05,0000.20,17.2,23.6,02.5,01.7,0666.1,30.9
2021-06-12T04:43:00Z,00000200,00000000,0002.46,0001.59,0001.09,0000.31,0000.37,0000.06,0000.91,0000.50,0000.54,17.2,23.6,02.5,01.7,0666.1,30.9
2021-06-12T04:44:00Z,00000200,00000000,0003.44,0001.77,0001.23,0000.27,0000.63,0000.18,0003.16,0003.11,0002.49,17.2,23.6,02.5,01.7,0666.1,30.9
2021-06-12T04:45:00Z,00000200,00000000,0003.52,0001.79,0000.94,0000.86,0000.45,0000.12,0004.44,0004.05,0002.98,17.1,23.6,02.4,01.6,0666.0,30.9
2021-06-12T04:46:00Z,00000200,00000000,0003.26,0001.85,0000.93,-000.15,0000.40,0000.01,0001.80,0001.77,0001.15,17.2,23.6,02.5,01.7,0666.1,30.9
2021-06-12T04:47:00Z,00000200,00000000,0002.70,0001.53,0000.82,0000.94,0000.16,0000.25,0000.42,0000.07,0000.44,17.1,23.6,02.3,01.6,0666.1,30.9
2021-06-12T04:48:00Z,00000200,00000000,0002.76,0001.53,0001.00,0000.50,0000.20,0000.23,0000.22,0000.38,0000.19,17.1,23.6,02.4,01.6,0666.1,30.9
2021-06-12T04:49:00Z,00000200,00000000,0003.03,0001.83,0000.88,0000.87,0000.35,0000.10,0000.34,0000.11,0000.15,17.1,23.6,02.3,01.6,0666.1,30.9
2021-06-12T04:50:00Z,00000200,00000000,0002.99,0001.53,0000.88,0000.84,0000.43,0000.24,0000.33,0000.45,0000.49,17.1,23.6,02.4,01.6,0666.2,30.9
2021-06-12T04:51:00Z,00000200,00000000,0003.09,0001.55,0000.85,0000.84,0000.34,0000.19,0000.36,0000.58,0000.27,17.2,23.6,02.3,01.6,0666.2,30.9
2021-06-12T04:52:00Z,00000200,00000000,0003.18,0001.64,0001.04,0000.42,0000.12,-000.03,0000.52,0000.32,0000.50,17.3,23.6,02.4,01.6,0666.2,31.0
2021-06-12T04:53:00Z,00000200,00000000,0003.09,0001.78,0001.10,0000.60,0000.13,0000.28,0000.49,0000.65,0000.48,17.4,23.7,02.3,01.6,0666.2,31.0
2021-06-12T04:54:00Z,00000200,00000000,0003.14,0002.10,0000.72,0000.54,0000.24,-000.03,0002.19,0002.49,0001.35,17.5,23.8,02.3,01.6,0666.2,31.0
2021-06-12T04:55:00Z,00000200,00000000,0002.70,0001.90,0000.75,0001.06,0000.30,0000.22,0003.30,0002.51,0002.50,17.5,23.8,02.3,01.6,0666.2,31.0
2021-06-12T04:56:00Z,00000200,00000000,0003.11,0001.69,0000.79,0000.60,0000.08,0000.09,0000.75,0000.30,0000.15,17.5,23.8,02.3,01.6,0666.2,31.0
2021-06-12T04:57:00Z,00000200,40000000,,,,,,,0000.05,0000.17,0000.03,17.6,23.9,02.5,01.7,0666.2,31.0
2021-06-12T04:58:00Z,00000200,60000000,,,,,,,-000.45,-000.38,-000.25,17.3,24.0,02.3,01.5,0665.2,31.0
2021-06-12T04:59:00Z,00000200,20000000,,,,,,,0000.18,0000.11,-000.00,17.3,24.1,02.2,01.4,0665.2,31.0
